Flag for Poland Weather past 2 weeks in Bytom, Poland

Now
59 °F

Cool.


Feels Like: 59 °F
Forecast: 58 / 69 °F
Wind: 2 mph from North

Location: Katowice Airport

Current Time: Sep 21, 2014 at 12:59:14 AM

Latest Report: Sep 21, 2014 at 12:30 AM


Visibility: 1 mi

Pressure: 29.92 "Hg

Humidity: 94%

Dew point: 57 °F

Location of BytomLocation

Historic Weather in Bytom — Graph

°F

Bytom temperature yesterday

Maximum temperature yesterday: 66 °F (at 3:00 PM)
Minimum temperature yesterday: 55 °F (at 9:30 PM)
Average temperature yesterday: 59 °F

Past Weeks' High & Low Weather Summary

 TemperatureHumidityPressure
High79 °F (Sep 8, 3:00 PM)100% (Sep 6, 2:00 AM)30.27 "Hg (Sep 6, 2:00 AM)
Low46 °F (Sep 13, 5:30 AM)38% (Sep 19, 1:00 PM)29.92 "Hg (Sep 6, 4:00 PM)
Average62 °F80%30.03 "Hg
* Reported Midnight between Sep 5 and Sep 6 — Midnight between Sep 20 and Sep 21, Bytom, Weather by CustomWeather, © 2014

Note: Actual official high and low records may vary slightly from our data, if they occured in-between our weather recording intervals... More about our weather records

Advertising

Bytom weather history for previous 24 hours

 ConditionsComfort  
Time TempWeatherWind HumidityBarometerVisibility
12:00 AM
Sep 21
59 °FFog.5 mph94%29.92 "Hg1 mi
11:30 PM
Sep 20
59 °FCool.5 mph94%29.92 "Hg1 mi
11:00 PM57 °FFog.3 mph100%29.92 "Hg1 mi
10:30 PM57 °FFog.3 mph100%29.92 "Hg1 mi
10:00 PM57 °FFog.3 mph94%29.92 "Hg1 mi
9:30 PM55 °FFog.3 mph100%29.95 "Hg2 mi
9:00 PM57 °FFog.2 mph94%29.95 "Hg2 mi
8:30 PM61 °FFog.5 mph88%29.95 "Hg2 mi
8:00 PM63 °FFog.5 mph88%29.95 "Hg2 mi
3:30 PM66 °FScattered clouds.1 mph78%29.95 "HgN/A
3:00 PM66 °FBroken clouds.3 mph78%29.95 "HgN/A
2:30 PM64 °FBroken clouds.5 mph83%29.95 "Hg5 mi
2:00 PM63 °FBroken clouds.5 mph88%29.98 "Hg5 mi
1:30 PM63 °FPartly sunny.5 mph88%29.98 "Hg5 mi
1:00 PM63 °FBroken clouds.3 mph88%29.98 "Hg5 mi
12:30 PM61 °FBroken clouds.6 mph94%29.98 "Hg5 mi
12:00 PM61 °FFog.3 mph94%29.95 "Hg2 mi
11:30 AM59 °FDrizzle. Fog.3 mph100%29.98 "Hg2 mi
11:00 AM59 °FDrizzle. Fog.2 mph94%29.98 "Hg2 mi
10:30 AM57 °FDrizzle. Fog.2 mph100%29.98 "Hg1 mi
10:00 AM57 °FDrizzle. Fog.3 mph100%29.98 "Hg1 mi
9:30 AM57 °FDrizzle. Fog.5 mph100%29.98 "Hg1 mi
9:00 AM57 °FRain showers. Fog.2 mph94%29.98 "Hg1 mi
8:30 AM57 °FSprinkles. Fog.2 mph94%29.98 "Hg1 mi
8:00 AM57 °FRain showers. Fog.3 mph94%29.98 "Hg1 mi
7:30 AM57 °FRain showers. Fog.2 mph94%29.98 "Hg1 mi
7:00 AM57 °FSprinkles. Fog.7 mph94%29.98 "Hg2 mi
6:30 AM57 °FLight rain. Fog.1 mph94%29.98 "Hg2 mi
6:00 AM57 °FLight rain. Fog.5 mph94%29.98 "Hg2 mi
5:30 AM57 °FLight rain. Clear.5 mph94%29.95 "Hg4 mi
5:00 AM59 °FLight rain. Clear.9 mph82%29.98 "HgN/A
4:30 AM57 °FClear.5 mph88%29.98 "Hg10 mi
4:00 AM59 °FClear.5 mph77%30.01 "Hg10 mi
3:00 AM59 °FClear.6 mph77%29.98 "Hg10 mi
2:30 AM59 °FPassing clouds.3 mph77%29.98 "HgN/A
2:00 AM59 °FClear.5 mph77%29.98 "Hg10 mi
1:30 AM59 °FPassing clouds.5 mph77%30.01 "HgN/A
1:00 AM59 °FPassing clouds.3 mph77%30.01 "HgN/A
12:30 AM59 °FClear.3 mph77%30.01 "Hg10 mi
12:00 AM59 °FClear.1 mph82%30.01 "Hg10 mi
Weather by CustomWeather, © 2014

See weather overviewHow to use our weather pages